KG1ZR Weather Reports


time (UTC)temp
C
wind
direction
speed
KPH
gust
KPH
rain 1hr
cm
rain 24hr
cm
rain mn
cm
humidity
%
barometer
mb
20260505011416 10 196 0.0 4.8 0.00 0.05 0.05 77 1005.6
20260505005248 10 217 0.0 3.2 0.00 0.05 0.05 77 1005.4
20260505004248 11 234 0.0 3.2 0.00 0.05 0.05 75 1005.4
20260505003249 11 154 1.6 6.4 0.00 0.05 0.05 73 1005.1
20260505002247 12 160 0.0 6.4 0.00 0.05 0.05 72 1004.9
20260505001718 12 162 0.0 1.6 0.00 0.05 0.05 68 1004.8
20260505000243 13 162 0.0 1.6 0.00 0.05 0.05 68 1004.5
20260504235242 13 162 0.0 4.8 0.00 0.05 0.05 63 1004.3
20260504234718 15 162 1.6 4.8 0.00 0.05 0.05 64 1004.2
20260504233242 15 207 0.0 1.6 0.00 0.05 0.05 58 1004.3
20260504232242 16 207 0.0 0.0 0.00 0.05 0.05 56 1004.2
20260504231715 16 207 0.0 3.2 0.00 0.05 0.05 53 1004.0
20260504230242 17 199 1.6 4.8 0.00 0.05 0.05 52 1004.0
20260504225242 17 252 1.6 4.8 0.00 0.05 0.05 51 1003.9
20260504224243 17 240 3.2 9.7 0.00 0.05 0.05 50 1003.8
20260504224221 17 247 3.2 9.7 0.00 0.05 0.05 51 1003.9
20260504222242 17 299 3.2 9.7 0.00 0.05 0.05 50 1003.8
20260504221241 17 263 3.2 8.0 0.00 0.05 0.05 51 1003.9
20260504220725 17 309 3.2 17.7 0.00 0.05 0.05 51 1003.9
20260504220247 17 309 3.2 17.7 0.00 0.05 0.05 51 1003.9
20260504215717 17 245 4.8 17.7 0.00 0.05 0.05 51 1003.9
20260504214723 17 283 6.4 22.5 0.00 0.05 0.05 51 1004.0
20260504214243 17 283 6.4 22.5 0.00 0.05 0.05 51 1004.0
20260504213241 17 290 8.0 24.1 0.00 0.05 0.05 53 1003.9
20260504212241 17 241 8.0 24.1 0.00 0.05 0.05 51 1004.0
20260504211241 17 279 9.7 29.0 0.00 0.05 0.05 54 1004.0
20260504210242 17 254 11.3 25.7 0.00 0.05 0.05 51 1003.9
20260504205240 17 284 9.7 24.1 0.00 0.05 0.05 53 1003.9
20260504204240 17 290 9.7 24.1 0.00 0.05 0.05 53 1003.9
20260504203240 17 284 9.7 22.5 0.00 0.05 0.05 53 1004.0
20260504202240 17 240 9.7 22.5 0.00 0.05 0.05 53 1004.0
20260504201720 17 221 8.0 22.5 0.00 0.05 0.05 57 1004.0
20260504200240 16 271 9.7 20.9 0.00 0.05 0.05 55 1004.2
20260504195716 16 268 11.3 25.7 0.00 0.05 0.05 58 1003.9
20260504194714 16 273 8.0 20.9 0.00 0.05 0.05 60 1004.0
20260504193234 16 257 8.0 17.7 0.00 0.05 0.05 64 1004.0
20260504192234 16 221 8.0 16.1 0.00 0.05 0.05 65 1004.1
20260504191234 16 242 6.4 16.1 0.00 0.05 0.05 67 1004.1
20260504190235 15 272 4.8 14.5 0.00 0.05 0.05 69 1004.1
20260504185235 14 160 6.4 14.5 0.00 0.05 0.05 73 1004.2
20260504184234 14 215 8.0 16.1 0.00 0.05 0.05 70 1004.4
20260504183234 13 273 6.4 14.5 0.03 0.05 0.05 74 1004.4
20260504182232 13 281 6.4 14.5 0.03 0.05 0.05 76 1004.4
20260504181714 12 240 6.4 17.7 0.03 0.05 0.05 77 1004.7
20260504180232 12 282 8.0 17.7 0.03 0.05 0.05 77 1004.7
20260504175705 11 311 3.2 12.9 0.05 0.05 0.05 75 1004.8
20260504174710 11 260 3.2 11.3 0.05 0.05 0.05 75 1004.9
20260504173232 11 293 4.8 12.9 0.03 0.03 0.03 76 1005.1
20260504172232 11 304 4.8 11.3 0.03 0.03 0.03 77 1005.2
20260504171232 12 304 3.2 9.7 0.03 0.03 0.03 77 1004.9
20260504170235 12 310 3.2 17.7 0.03 0.03 0.03 76 1004.8
20260504160233 13 219 8.0 16.1 0.00 0.00 0.00 61 1003.7
20260504150224 12 159 8.0 17.7 0.00 0.08 0.00 64 1004.5
20260504141227 11 176 4.8 12.9 0.00 0.20 0.00 66 1005.3
20260504140218 10 267 8.0 19.3 0.00 0.23 0.00 65 1005.4
20260504130218 8 253 4.8 9.7 0.00 0.28 0.00 66 1006.4
20260504120212 6 189 3.2 9.7 0.00 0.33 0.00 73 1006.6
20260504110206 1 224 0.0 1.6 0.00 0.38 0.00 72 1006.5
20260504100204 -1 225 0.0 0.0 0.00 0.38 0.00 72 1006.6
20260504081152 -1 225 0.0 0.0 0.00 0.46 0.00 75 1006.3
20260504080152 -1 225 0.0 0.0 0.00 0.46 0.00 75 1006.3
20260504070145 -1 225 0.0 4.8 0.00 0.46 0.00 77 1006.1
20260504060144 0 238 0.0 0.0 0.00 0.46 0.00 78 1006.0
20260504050620 0 238 0.0 1.6 0.00 0.48 0.00 79 1005.9
20260504045138 0 238 0.0 4.8 0.00 0.48 0.00 79 1005.8
20260504044136 0 238 1.6 4.8 0.00 0.48 0.00 79 1005.9
20260504043135 0 238 0.0 3.2 0.00 0.48 0.00 79 1005.9
20260504042136 0 238 0.0 3.2 0.00 0.48 0.00 79 1005.9
20260504041136 0 238 1.6 3.2 0.00 0.48 0.00 79 1005.9
20260504040136 0 238 0.0 3.2 0.00 0.48 0.00 80 1005.8
20260504035135 1 238 0.0 3.2 0.00 0.48 0.48 79 1005.7
20260504034134 1 238 0.0 3.2 0.00 0.48 0.48 80 1005.6
20260504033133 1 238 0.0 4.8 0.00 0.48 0.48 79 1005.6
20260504032620 1 238 1.6 4.8 0.00 0.48 0.48 79 1005.6
20260504031131 1 260 1.6 3.2 0.00 0.48 0.48 78 1005.6
20260504030131 2 260 0.0 3.2 0.00 0.48 0.48 77 1005.6
20260504025130 2 260 0.0 4.8 0.00 0.48 0.48 75 1005.5
20260504024130 2 271 0.0 3.2 0.00 0.48 0.48 73 1005.4
20260504023131 3 271 0.0 3.2 0.00 0.48 0.48 70 1005.3
20260504022131 3 271 0.0 3.2 0.00 0.48 0.48 68 1005.4
20260504021130 4 271 0.0 3.2 0.00 0.51 0.48 66 1005.4
20260504020130 5 271 1.6 6.4 0.00 0.51 0.48 65 1005.3
20260504015131 5 242 1.6 6.4 0.00 0.51 0.48 64 1005.3
20260504014130 5 267 1.6 8.0 0.00 0.51 0.48 63 1005.3
20260504013614 5 319 1.6 14.5 0.00 0.51 0.48 63 1005.3
20260504012131 6 294 4.8 14.5 0.00 0.51 0.48 61 1005.1